Powrót do katalogu

KUIPER-00154

AktywnyŁącznośćLEO
NORAD 65969·PAYLOAD·🇺🇸 United States

Wystrzelony Oct 14, 2025 z Cape Canaveral Space Force Station

Loading…

Następne Przeloty (najbliższe 24 godziny)

TLE

ŚwieżeSource: CelesTrak SupGP

Epoka: Sep 14, 2026, 14:04 UTC

1 65969C 25228Y   26257.58623843  .00001204  00000+0  15763-3 0  2573
2 65969  51.8988 220.3017 0000849  72.9742 196.3240 14.79920299    11

Śledź KUIPER-00154 w czasie rzeczywistym z AllMySat

Download on the App Store